CW5834 Weather Reports


Display with metric or nautical units.
time (UTC)temp
F
wind
direction
speed
MPH
gust
MPH
rain 1hr
in
rain 24hr
in
rain mn
in
humidity
%
barometer
mb
20260510211516 81 225 2.0 5.0 0.00 0.00 0.00 42 1016.9
20260510210516 81 225 1.0 3.0 0.00 0.00 0.00 41 1016.8
20260510205516 81 203 2.0 5.0 0.00 0.00 0.00 45 1017.0
20260510204516 81 180 1.0 4.0 0.00 0.00 0.00 40 1016.9
20260510203516 81 338 4.0 10.0 0.00 0.00 0.00 42 1017.0
20260510202516 81 225 2.0 5.0 0.00 0.00 0.00 41 1017.0
20260510201516 80 180 2.0 4.0 0.00 0.00 0.00 42 1017.2
20260510200516 80 0 3.0 8.0 0.00 0.00 0.00 42 1017.2
20260510195516 80 293 2.0 5.0 0.00 0.00 0.00 41 1017.3
20260510194516 79 225 3.0 7.0 0.00 0.00 0.00 41 1017.3
20260510193516 80 203 3.0 10.0 0.00 0.00 0.00 45 1017.5
20260510192516 78 270 1.0 3.0 0.00 0.00 0.00 46 1017.5
20260510191516 79 225 5.0 10.0 0.00 0.00 0.00 43 1017.7
20260510190516 79 135 1.0 3.0 0.00 0.00 0.00 47 1017.7
20260510185516 79 203 4.0 7.0 0.00 0.00 0.00 44 1017.7
20260510184516 79 315 2.0 5.0 0.00 0.00 0.00 46 1017.7
20260510183516 78 225 3.0 7.0 0.00 0.00 0.00 50 1017.8
20260510182516 76 135 2.0 5.0 0.00 0.00 0.00 49 1017.8
20260510181516 77 203 2.0 6.0 0.00 0.00 0.00 48 1018.1
20260510180516 77 203 4.0 15.0 0.00 0.00 0.00 49 1018.2
20260510175516 77 135 3.0 4.0 0.00 0.00 0.00 52 1018.2
20260510174516 77 180 3.0 7.0 0.00 0.00 0.00 51 1018.3
20260510173516 76 248 2.0 4.0 0.00 0.00 0.00 51 1018.4
20260510172515 76 203 2.0 6.0 0.00 0.00 0.00 51 1018.4
20260510171516 76 203 3.0 6.0 0.00 0.00 0.00 50 1018.5
20260510170516 76 203 3.0 6.0 0.00 0.00 0.00 49 1018.5
20260510165516 76 158 2.0 6.0 0.00 0.00 0.00 52 1018.4
20260510164519 75 203 2.0 4.0 0.00 0.00 0.00 52 1018.7
20260510163515 74 293 3.0 7.0 0.00 0.00 0.00 55 1018.8
20260510162516 74 135 2.0 6.0 0.00 0.00 0.00 58 1018.8
20260510161516 74 225 2.0 5.0 0.00 0.00 0.00 57 1018.9
20260510160515 74 248 2.0 4.0 0.00 0.00 0.00 59 1018.9
20260510155515 73 225 3.0 6.0 0.00 0.00 0.00 60 1018.8
20260510154516 73 203 2.0 5.0 0.00 0.00 0.00 61 1018.9
20260510153515 72 203 2.0 5.0 0.00 0.00 0.00 64 1019.0
20260510152515 72 225 2.0 7.0 0.00 0.00 0.00 60 1018.9
20260510151515 71 225 2.0 6.0 0.00 0.00 0.00 61 1018.8
20260510150515 71 203 2.0 4.0 0.00 0.00 0.00 62 1018.9
20260510145515 70 203 2.0 5.0 0.00 0.00 0.00 67 1018.7
20260510144516 71 180 1.0 2.0 0.00 0.00 0.00 69 1018.7
20260510143515 70 203 2.0 6.0 0.00 0.00 0.00 71 1018.6
20260510142517 69 203 1.0 3.0 0.00 0.00 0.00 73 1018.6
20260510141517 68 225 1.0 3.0 0.00 0.00 0.00 67 1018.7
20260510140537 67 180 2.0 4.0 0.00 0.00 0.00 70 1018.7
20260510135517 66 203 2.0 4.0 0.00 0.00 0.00 74 1018.6
20260510134517 65 225 1.0 3.0 0.00 0.00 0.00 76 1018.6
20260510133517 64 203 2.0 4.0 0.00 0.00 0.00 77 1018.7
20260510132517 64 225 2.0 4.0 0.00 0.00 0.00 80 1018.5
20260510131517 63 225 1.0 4.0 0.00 0.00 0.00 83 1018.7
20260510130535 62 203 1.0 3.0 0.00 0.00 0.00 82 1018.6
20260510125517 61 0.0 2.0 0.00 0.00 0.00 85 1018.5
20260510124517 59 0.0 2.0 0.00 0.00 0.00 90 1018.5
20260510123520 57 0.0 2.0 0.00 0.00 0.00 95 1018.4
20260510122517 56 0.0 2.0 0.00 0.00 0.00 95 1018.3
20260510121517 53 0.0 0.0 0.00 0.00 0.00 95 1018.3
20260510120517 52 0.0 0.0 0.00 0.00 0.00 95 1017.9
20260510115517 51 0.0 0.0 0.00 0.00 0.00 95 1018.0
20260510114537 49 0.0 1.0 0.00 0.00 0.00 95 1017.9
20260510113517 48 0.0 2.0 0.00 0.00 0.00 94 1017.8
20260510112517 48 0.0 2.0 0.00 0.00 0.00 95 1017.6
20260510111517 47 0.0 2.0 0.00 0.00 0.00 94 1017.3
20260510110517 47 0.0 2.0 0.00 0.00 0.00 94 1017.2
20260510105537 48 0.0 0.0 0.00 0.00 0.00 94 1017.2
20260510104517 47 0.0 2.0 0.00 0.00 0.00 94 1017.0
20260510103517 47 0.0 1.0 0.00 0.00 0.00 94 1016.9
20260510102517 47 0.0 0.0 0.00 0.00 0.00 94 1016.7
20260510101517 47 0.0 2.0 0.00 0.00 0.00 94 1016.6
20260510100537 47 0.0 2.0 0.00 0.00 0.00 93 1016.5
20260510095517 48 0.0 2.0 0.00 0.00 0.00 94 1016.3
20260510094517 48 0.0 0.0 0.00 0.00 0.00 94 1016.1
20260510093516 47 0.0 2.0 0.00 0.00 0.00 93 1016.0
20260510092517 48 0.0 0.0 0.00 0.00 0.00 93 1016.0
20260510091517 48 0.0 2.0 0.00 0.00 0.00 94 1015.8
20260510090517 48 0.0 1.0 0.00 0.00 0.00 93 1015.8
20260510085516 48 0.0 1.0 0.00 0.00 0.00 93 1015.7
20260510084517 48 0.0 2.0 0.00 0.00 0.00 93 1015.8
20260510083517 48 0.0 1.0 0.00 0.00 0.00 92 1015.7
20260510082516 49 0.0 1.0 0.00 0.00 0.00 94 1015.6
20260510081557 48 0.0 2.0 0.00 0.00 0.00 93 1015.6
20260510080517 48 0.0 0.0 0.00 0.00 0.00 92 1015.3
20260510075516 49 0.0 0.0 0.00 0.00 0.00 93 1015.1
20260510074517 49 0.0 0.0 0.00 0.00 0.00 93 1015.1
20260510073536 49 0.0 0.0 0.00 0.00 0.00 92 1015.1
20260510072516 49 0.0 0.0 0.00 0.00 0.00 93 1014.9
20260510071556 49 0.0 0.0 0.00 0.00 0.00 93 1015.0
20260510070516 49 0.0 0.0 0.00 0.00 0.00 92 1014.8
20260510065516 49 0.0 0.0 0.00 0.00 0.00 92 1014.7
20260510064516 50 0.0 0.0 0.00 0.00 0.00 92 1014.8
20260510063516 50 0.0 0.0 0.00 0.00 0.00 91 1014.7
20260510062516 50 0.0 2.0 0.00 0.00 0.00 92 1014.9
20260510061536 50 0.0 0.0 0.00 0.00 0.00 92 1015.0
20260510060517 50 0.0 1.0 0.00 0.00 0.00 91 1015.0
20260510055516 50 0.0 0.0 0.00 0.00 0.00 91 1015.0
20260510054536 51 0.0 2.0 0.00 0.00 0.00 91 1015.0
20260510053516 51 0.0 0.0 0.00 0.00 0.00 90 1014.9
20260510052516 51 0.0 0.0 0.00 0.00 0.00 90 1014.9
20260510051516 52 0.0 0.0 0.00 0.00 0.00 89 1014.9
20260510050516 52 0.0 0.0 0.00 0.00 0.00 89 1014.9
20260510045516 52 0.0 0.0 0.00 0.00 0.00 89 1014.9
20260510044516 52 0.0 2.0 0.00 0.00 0.00 87 1014.8
20260510043516 53 0.0 0.0 0.00 0.00 0.00 86 1014.8
20260510042536 54 0.0 0.0 0.00 0.00 0.00 87 1014.8
20260510041526 54 0.0 0.0 0.00 0.00 0.00 87 1014.7
20260510040516 54 0.0 2.0 0.00 0.00 0.00 87 1014.6
20260510035517 54 0.0 2.0 0.00 0.00 0.00 84 1014.7
20260510034537 54 0.0 2.0 0.00 0.00 0.00 84 1014.5
20260510033517 55 0.0 0.0 0.00 0.00 0.00 84 1014.5
20260510032537 55 0.0 0.0 0.00 0.00 0.00 84 1014.5
20260510031517 55 0.0 0.0 0.00 0.00 0.00 83 1014.6
20260510030537 56 0.0 0.0 0.00 0.00 0.00 82 1014.6
20260510025517 56 0.0 2.0 0.00 0.00 0.00 82 1014.5
20260510024518 57 0.0 2.0 0.00 0.00 0.00 81 1014.4
20260510023517 57 0.0 2.0 0.00 0.00 0.00 80 1014.3
20260510022517 58 0.0 1.0 0.00 0.00 0.00 81 1014.1
20260510021517 58 0.0 0.0 0.00 0.00 0.00 79 1013.9
20260510020517 59 0 1.0 1.0 0.00 0.00 0.00 78 1013.7
20260510015517 59 0.0 2.0 0.00 0.00 0.00 77 1013.6
20260510014517 60 338 1.0 1.0 0.00 0.00 0.00 75 1013.5
20260510013517 61 0.0 2.0 0.00 0.00 0.00 74 1013.4
20260510012517 61 0.0 2.0 0.00 0.00 0.00 73 1013.1
20260510011517 62 0.0 0.0 0.00 0.00 0.00 72 1013.1
20260510010517 63 0.0 2.0 0.00 0.00 0.00 70 1013.1
20260510005517 64 0.0 2.0 0.00 0.00 0.00 68 1013.0
20260510004517 65 0.0 2.0 0.00 0.00 0.00 66 1012.7
20260510003517 65 0.0 1.0 0.00 0.00 0.00 66 1012.6
20260510002517 67 293 1.0 1.0 0.00 0.00 0.00 65 1012.5
20260510001517 68 0.0 1.0 0.00 0.00 0.00 63 1012.2
20260510000517 69 0.0 1.0 0.00 0.00 0.00 61 1012.1
20260509235516 70 338 1.0 2.0 0.00 0.00 0.00 58 1012.0
20260509234537 71 338 2.0 5.0 0.00 0.00 0.00 55 1011.7
20260509233516 72 293 1.0 2.0 0.00 0.00 0.00 53 1011.8
20260509232516 72 315 2.0 5.0 0.00 0.00 0.00 50 1012.0
20260509231536 74 225 1.0 4.0 0.00 0.00 0.00 50 1012.1
20260509230517 75 338 1.0 3.0 0.00 0.00 0.00 51 1011.9
20260509225516 75 338 1.0 3.0 0.00 0.00 0.00 54 1011.8
20260509224516 74 315 2.0 6.0 0.00 0.00 0.00 51 1011.9
20260509223516 74 225 4.0 9.0 0.00 0.00 0.00 51 1012.1
20260509222516 74 0.0 2.0 0.00 0.00 0.00 54 1012.0
20260509221516 72 0.0 2.0 0.00 0.00 0.00 55 1011.8
20260509220516 73 293 1.0 3.0 0.00 0.00 0.00 56 1011.8
20260509215516 73 270 1.0 3.0 0.00 0.00 0.00 55 1011.7
20260509214516 75 225 2.0 4.0 0.00 0.00 0.00 52 1011.7
20260509213536 75 225 1.0 6.0 0.00 0.00 0.00 55 1011.7
20260509212601 74 225 3.0 7.0 0.00 0.00 0.00 53 1011.5